Tracking 18840 objects as of 18-November-2017
HD Live streaming from Space Station
objects crossing your sky now

PSLV R/B

Track PSLV R/B now!
10-day predictions


NORAD ID: 39200
Int'l Code: 2013-034B
Perigee: 301.5 km
Apogee: 19,923.2 km
Inclination: 17.8 °
Period: 351.0 minutes
Semi major axis: 16483 km
RCS: Unknown
Launch date: July 1, 2013
Source: India (IND)
Launch site: SRIHARIKOTA (SRI)

Note: This is a ROCKET BODY
aabbcc
Your satellite tracking list
Your tracking list is empty




NASA's NSSDC Master Catalog

Two Line Element Set (TLE):
1 39200U 13034B   17321.25159974 +.00001640 +00000-0 +38542-3 0  9997
2 39200 017.7885 292.8089 5952000 049.2137 349.0070 04.10237039064403
Source of the keplerian elements: AFSPC